Location: Poigny-la-Forêt
(48.6876°N, 1.7701°E)
Time: 08:01:48
(UTC+02:00)

Envisat - Pass Details

Date: 03 April 2019
Orbit: 764 x 766 km, 98.2° (Epoch: 24 April)

Event Time Altitude Azimuth Distance (km) Brightness Sun altitude
Rises 21:33:27 0° 205° (SSW) 3,221 6.3 -11.5°
Reaches altitude 10° 21:36:18 10° 221° (SW) 2,300 5.7 -11.9°
Maximum altitude 21:40:05 21° 270° (W) 1,678 5.7 -12.5°
Drops below altitude 10° 21:43:53 10° 318° (NW) 2,313 6.6 -13.1°
Sets 21:46:46 0° 335° (NNW) 3,244 7.1 -13.5°
